Tracking 28052 objects as of 24-Sep-2023
HD Live streaming from Space Station
objects crossing your sky now

STARLINK-30088

Track STARLINK-30088 now!
10-day predictions
STARLINK-30088 is classified as:


NORAD ID: 57462
Int'l Code: 2023-107F
Perigee: 565.8 km
Apogee: 566.6 km
Inclination: 43.0 °
Period: 95.8 minutes
Semi major axis: 6937 km
RCS: Unknown
Launch date: July 28, 2023
Source: (TBD)
Launch site: AIR FORCE EASTERN TEST RANGE (AFETR)
Your satellite tracking list
Your tracking list is empty




NASA's NSSDC Master Catalog

Two Line Element Set (TLE):
1 57462U 23107F   23266.78211316 -.00000142  00000-0  45648-5 0  9995
2 57462  42.9967 178.0405 0000627 270.9204  89.1566 15.02539938 10020
Source of the keplerian elements: AFSPC